owner,sensor,date,latitude,longitude,vertical_datum,wind_speed,wind_to_direction,wind_speed_of_gust,qcFlag 
TABS,ioos:station:TABS:X:1,2017-05-01T00:00:00Z,27.0660,-96.3383,4.0,5.038223893,78.66737035,6.22,'11111222,11111222,11111222' 
TABS,ioos:station:TABS:X:1,2017-05-01T00:30:00Z,27.0660,-96.3383,4.0,5.737848029,87.00254351,6.83,'11111222,11111222,11111222' 
TABS,ioos:station:TABS:X:1,2017-05-01T01:00:00Z,27.0660,-96.3383,4.0,5.834149467,92.16149535,7.18,'11111222,11111222,11111222' 
TABS,ioos:station:TABS:X:1,2017-05-01T01:30:00Z,27.0660,-96.3383,4.0,6.350338574,95.6032685,7.7,'11111222,11111222,11111222' 
TABS,ioos:station:TABS:X:1,2017-05-01T02:00:00Z,27.0660,-96.3383,4.0,6.250159998,104.1700321,7.33,'11111222,11111222,11111222' 
TABS,ioos:station:TABS:X:1,2017-05-01T02:30:00Z,27.0660,-96.3383,4.0,6.580402723,98.3890902,7.9,'11111222,11111222,11111222' 
TABS,ioos:station:TABS:X:1,2017-05-01T03:00:00Z,27.0660,-96.3383,4.0,6.332850859,91.71967923,7.69,'11111222,11111222,11111222' 
TABS,ioos:station:TABS:X:1,2017-05-01T03:30:00Z,27.0660,-96.3383,4.0,6.045990407,95.31495416,7.51,'11111222,11111222,11111222' 
TABS,ioos:station:TABS:X:1,2017-05-01T04:00:00Z,27.0660,-96.3383,4.0,4.96025201,90.57797843,6.28,'11111222,11111222,11111222' 
TABS,ioos:station:TABS:X:1,2017-05-01T04:30:00Z,27.0660,-96.3383,4.0,4.743184584,105.5309617,5.97,'11111222,11111222,11111222' 
TABS,ioos:station:TABS:X:1,2017-05-01T05:00:00Z,27.0660,-96.3383,4.0,4.443028247,108.6392249,5.44,'11111222,11111222,11111222' 
TABS,ioos:station:TABS:X:1,2017-05-01T05:30:00Z,27.0660,-96.3383,4.0,3.804681327,127.954563,4.97,'11111222,11111222,11111222' 
TABS,ioos:station:TABS:X:1,2017-05-01T06:00:00Z,27.0660,-96.3383,4.0,4.206304792,138.083969,5.71,'11111222,11111222,11111222' 
TABS,ioos:station:TABS:X:1,2017-05-01T06:30:00Z,27.0660,-96.3383,4.0,4.132989233,137.3536071,4.79,'11111222,11111222,11111222' 
TABS,ioos:station:TABS:X:1,2017-05-01T07:00:00Z,27.0660,-96.3383,4.0,3.39607126,126.4990643,4.12,'11111222,11111222,11111222' 
TABS,ioos:station:TABS:X:1,2017-05-01T07:30:00Z,27.0660,-96.3383,4.0,2.84871901,128.1575583,3.87,'11111222,11111222,11111222' 
TABS,ioos:station:TABS:X:1,2017-05-01T08:00:00Z,27.0660,-96.3383,4.0,3.666742423,132.3475883,4.51,'11111222,11111222,11111222' 
TABS,ioos:station:TABS:X:1,2017-05-01T08:30:00Z,27.0660,-96.3383,4.0,3.066023483,126.6459844,3.7,'11111222,11111222,11111222' 
TABS,ioos:station:TABS:X:1,2017-05-01T09:00:00Z,27.0660,-96.3383,4.0,4.215412198,138.5586563,5.05,'11111222,11111222,11111222' 
TABS,ioos:station:TABS:X:1,2017-05-01T09:30:00Z,27.0660,-96.3383,4.0,4.300697618,133.4928835,5.42,'11111222,11111222,11111222' 
TABS,ioos:station:TABS:X:1,2017-05-01T10:00:00Z,27.0660,-96.3383,4.0,4.528156358,136.9690783,5.32,'11111222,11111222,11111222' 
TABS,ioos:station:TABS:X:1,2017-05-01T10:30:00Z,27.0660,-96.3383,4.0,5.0009999,141.9846389,6.09,'11111222,11111222,11111222' 
TABS,ioos:station:TABS:X:1,2017-05-01T11:00:00Z,27.0660,-96.3383,4.0,5.287655435,117.9708587,6.4,'11111222,11111222,11111222' 
TABS,ioos:station:TABS:X:1,2017-05-01T11:30:00Z,27.0660,-96.3383,4.0,5.36209847,114.2232375,6.58,'11111222,11111222,11111222' 
TABS,ioos:station:TABS:X:1,2017-05-01T12:00:00Z,27.0660,-96.3383,4.0,4.560317971,121.4596925,5.33,'11111222,11111222,11111222' 
TABS,ioos:station:TABS:X:1,2017-05-01T12:30:00Z,27.0660,-96.3383,4.0,4.529823396,120.0746947,5.35,'11111222,11111222,11111222' 
TABS,ioos:station:TABS:X:1,2017-05-01T13:00:00Z,27.0660,-96.3383,4.0,3.844268461,123.1116854,4.82,'11111222,11111222,11111222' 
TABS,ioos:station:TABS:X:1,2017-05-01T13:30:00Z,27.0660,-96.3383,4.0,3.564828187,133.6363913,4.24,'11111222,11111222,11111222' 
TABS,ioos:station:TABS:X:1,2017-05-01T14:00:00Z,27.0660,-96.3383,4.0,3.178049716,139.5945583,3.93,'11111222,11111222,11111222' 
TABS,ioos:station:TABS:X:1,2017-05-01T14:30:00Z,27.0660,-96.3383,4.0,3.461921432,152.4729819,4.14,'11111222,11111222,11111222' 
TABS,ioos:station:TABS:X:1,2017-05-01T15:00:00Z,27.0660,-96.3383,4.0,3.576940033,162.4264477,4.12,'11111222,11111222,11111222' 
TABS,ioos:station:TABS:X:1,2017-05-01T15:30:00Z,27.0660,-96.3383,4.0,2.616027523,143.3932212,3.13,'11111222,11111222,11111222' 
TABS,ioos:station:TABS:X:1,2017-05-01T16:00:00Z,27.0660,-96.3383,4.0,3.395555919,136.6709651,4.31,'11111222,11111222,11111222' 
TABS,ioos:station:TABS:X:1,2017-05-01T16:30:00Z,27.0660,-96.3383,4.0,2.655145947,113.7656612,3.21,'11111222,11111222,11111222' 
TABS,ioos:station:TABS:X:1,2017-05-01T17:00:00Z,27.0660,-96.3383,4.0,2.637877935,130.6958568,3.29,'11111222,11111222,11111222' 
TABS,ioos:station:TABS:X:1,2017-05-01T17:30:00Z,27.0660,-96.3383,4.0,2.637745249,134.2323235,3.05,'11111222,11111222,11111222' 
TABS,ioos:station:TABS:X:1,2017-05-01T18:00:00Z,27.0660,-96.3383,4.0,2.368142732,126.2411669,3.62,'11111222,11111222,11111222' 
TABS,ioos:station:TABS:X:1,2017-05-01T18:30:00Z,27.0660,-96.3383,4.0,2.644617175,120.4439254,3.36,'11111222,11111222,11111222' 
TABS,ioos:station:TABS:X:1,2017-05-01T19:00:00Z,27.0660,-96.3383,4.0,2.181467396,92.10207033,2.83,'11111222,11111222,11111222' 
TABS,ioos:station:TABS:X:1,2017-05-01T19:30:00Z,27.0660,-96.3383,4.0,2.922892403,92.54957113,3.63,'11111222,11111222,11111222' 
TABS,ioos:station:TABS:X:1,2017-05-01T20:00:00Z,27.0660,-96.3383,4.0,3.392712779,118.9073305,4.04,'11111222,11111222,11111222' 
TABS,ioos:station:TABS:X:1,2017-05-01T20:30:00Z,27.0660,-96.3383,4.0,3.60206885,107.78141,4.03,'11111222,11111222,11111222' 
TABS,ioos:station:TABS:X:1,2017-05-01T21:00:00Z,27.0660,-96.3383,4.0,4.1,114.1898785,4.69,'11111222,11111222,11111222' 
TABS,ioos:station:TABS:X:1,2017-05-01T21:30:00Z,27.0660,-96.3383,4.0,4.410215414,122.9697477,5.38,'11111222,11111222,11111222' 
TABS,ioos:station:TABS:X:1,2017-05-01T22:00:00Z,27.0660,-96.3383,4.0,5.183743821,131.8725169,5.78,'11111222,11111222,11111222' 
TABS,ioos:station:TABS:X:1,2017-05-01T22:30:00Z,27.0660,-96.3383,4.0,5.710078809,127.1712575,6.64,'11111222,11111222,11111222' 
TABS,ioos:station:TABS:X:1,2017-05-01T23:00:00Z,27.0660,-96.3383,4.0,5.597865665,124.7408068,6.56,'11111222,11111222,11111222' 
TABS,ioos:station:TABS:X:1,2017-05-01T23:30:00Z,27.0660,-96.3383,4.0,7.326097187,137.6003607,8.51,'11111222,11111222,11111222' 
TABS,ioos:station:TABS:X:1,2017-05-02T00:00:00Z,27.0660,-96.3383,4.0,7.140371139,141.6537859,8.01,'11111222,11111222,11111222' 
TABS,ioos:station:TABS:X:1,2017-05-02T00:30:00Z,27.0660,-96.3383,4.0,8.182181861,140.9030463,9.27,'11111222,11111222,11111222' 
TABS,ioos:station:TABS:X:1,2017-05-02T01:00:00Z,27.0660,-96.3383,4.0,8.152797066,143.9315862,9.31,'11111222,11111222,11111222' 
TABS,ioos:station:TABS:X:1,2017-05-02T01:30:00Z,27.0660,-96.3383,4.0,7.511784076,151.797674,8.63,'11111222,11111222,11111222' 
TABS,ioos:station:TABS:X:1,2017-05-02T02:00:00Z,27.0660,-96.3383,4.0,8.31736136,157.9685961,9.35,'11111222,11111222,11111222' 
TABS,ioos:station:TABS:X:1,2017-05-02T02:30:00Z,27.0660,-96.3383,4.0,7.866441381,155.3573914,8.84,'11111222,11111222,11111222' 
TABS,ioos:station:TABS:X:1,2017-05-02T03:00:00Z,27.0660,-96.3383,4.0,7.297211796,155.1209341,8.44,'11111222,11111222,11111222' 
TABS,ioos:station:TABS:X:1,2017-05-02T03:30:00Z,27.0660,-96.3383,4.0,7.766208856,157.5960506,8.83,'11111222,11111222,11111222' 
TABS,ioos:station:TABS:X:1,2017-05-02T04:00:00Z,27.0660,-96.3383,4.0,7.316501896,153.7153935,8.6,'11111222,11111222,11111222' 
TABS,ioos:station:TABS:X:1,2017-05-02T04:30:00Z,27.0660,-96.3383,4.0,7.589374151,153.8066081,8.8,'11111222,11111222,11111222' 
TABS,ioos:station:TABS:X:1,2017-05-02T05:00:00Z,27.0660,-96.3383,4.0,7.462573283,159.2824632,8.78,'11111222,11111222,11111222' 
TABS,ioos:station:TABS:X:1,2017-05-02T05:30:00Z,27.0660,-96.3383,4.0,7.519906914,161.4689286,8.97,'11111222,11111222,11111222' 
TABS,ioos:station:TABS:X:1,2017-05-02T06:00:00Z,27.0660,-96.3383,4.0,7.346543405,160.8500712,8.26,'11111222,11111222,11111222' 
TABS,ioos:station:TABS:X:1,2017-05-02T06:30:00Z,27.0660,-96.3383,4.0,7.120568798,163.0158396,8.29,'11111222,11111222,11111222' 
TABS,ioos:station:TABS:X:1,2017-05-02T07:00:00Z,27.0660,-96.3383,4.0,6.501476755,167.2037867,7.52,'11111222,11111222,11111222' 
TABS,ioos:station:TABS:X:1,2017-05-02T07:30:00Z,27.0660,-96.3383,4.0,6.315639318,166.0740144,6.92,'11111222,11111222,11111222' 
TABS,ioos:station:TABS:X:1,2017-05-02T08:00:00Z,27.0660,-96.3383,4.0,5.506514324,160.4794174,6.15,'11111222,11111222,11111222' 
TABS,ioos:station:TABS:X:1,2017-05-02T08:30:00Z,27.0660,-96.3383,4.0,5.467037589,157.7512388,6.39,'11111222,11111222,11111222' 
TABS,ioos:station:TABS:X:1,2017-05-02T09:00:00Z,27.0660,-96.3383,4.0,5.437435057,156.5941323,6.24,'11111222,11111222,11111222' 
TABS,ioos:station:TABS:X:1,2017-05-02T09:30:00Z,27.0660,-96.3383,4.0,5.687266479,149.6930822,6.62,'11111222,11111222,11111222' 
TABS,ioos:station:TABS:X:1,2017-05-02T10:00:00Z,27.0660,-96.3383,4.0,5.33922279,146.8459576,6.31,'11111222,11111222,11111222' 
TABS,ioos:station:TABS:X:1,2017-05-02T10:30:00Z,27.0660,-96.3383,4.0,3.834709898,165.3479413,4.39,'11111222,11111222,11111222' 
TABS,ioos:station:TABS:X:1,2017-05-02T11:00:00Z,27.0660,-96.3383,4.0,3.550901294,153.2187401,4.24,'11111222,11111222,11111222' 
TABS,ioos:station:TABS:X:1,2017-05-02T11:30:00Z,27.0660,-96.3383,4.0,4.8428504,118.8940792,5.84,'11111222,11111222,11111222' 
TABS,ioos:station:TABS:X:1,2017-05-02T12:00:00Z,27.0660,-96.3383,4.0,4.406007263,120.4065551,5.07,'11111222,11111222,11111222' 
TABS,ioos:station:TABS:X:1,2017-05-02T12:30:00Z,27.0660,-96.3383,4.0,5.420701062,115.8090757,6.33,'11111222,11111222,11111222' 
TABS,ioos:station:TABS:X:1,2017-05-02T13:00:00Z,27.0660,-96.3383,4.0,5.657225468,119.7829189,6.65,'11111222,11111222,11111222' 
TABS,ioos:station:TABS:X:1,2017-05-02T13:30:00Z,27.0660,-96.3383,4.0,6.304038388,113.0676822,7.37,'11111222,11111222,11111222' 
TABS,ioos:station:TABS:X:1,2017-05-02T14:00:00Z,27.0660,-96.3383,4.0,7.281792362,115.5448952,8.67,'11111222,11111222,11111222' 
TABS,ioos:station:TABS:X:1,2017-05-02T14:30:00Z,27.0660,-96.3383,4.0,7.716229649,119.5886624,9.03,'11111222,11111222,11111222' 
TABS,ioos:station:TABS:X:1,2017-05-02T15:00:00Z,27.0660,-96.3383,4.0,6.85519511,121.5804717,8.88,'11111222,11111222,11111222' 
TABS,ioos:station:TABS:X:1,2017-05-02T15:30:00Z,27.0660,-96.3383,4.0,7.498493182,131.1071817,8.92,'11111222,11111222,11111222' 
TABS,ioos:station:TABS:X:1,2017-05-02T16:00:00Z,27.0660,-96.3383,4.0,7.456735211,131.901866,8.87,'11111222,11111222,11111222' 
TABS,ioos:station:TABS:X:1,2017-05-02T16:30:00Z,27.0660,-96.3383,4.0,7.368480169,132.4152361,8.34,'11111222,11111222,11111222' 
TABS,ioos:station:TABS:X:1,2017-05-02T17:00:00Z,27.0660,-96.3383,4.0,7.152349264,130.9752448,8.28,'11111222,11111222,11111222' 
TABS,ioos:station:TABS:X:1,2017-05-02T17:30:00Z,27.0660,-96.3383,4.0,6.684317467,128.3790175,8.38,'11111222,11111222,11111222' 
TABS,ioos:station:TABS:X:1,2017-05-02T18:00:00Z,27.0660,-96.3383,4.0,6.479544737,124.4997549,7.6,'11111222,11111222,11111222' 
TABS,ioos:station:TABS:X:1,2017-05-02T18:30:00Z,27.0660,-96.3383,4.0,5.71986888,121.6340985,6.88,'11111222,11111222,11111222' 
TABS,ioos:station:TABS:X:1,2017-05-02T19:00:00Z,27.0660,-96.3383,4.0,5.802352971,126.2382481,6.86,'11111222,11111222,11111222' 
TABS,ioos:station:TABS:X:1,2017-05-02T19:30:00Z,27.0660,-96.3383,4.0,6.555249805,125.7513873,7.53,'11111222,11111222,11111222' 
TABS,ioos:station:TABS:X:1,2017-05-02T20:00:00Z,27.0660,-96.3383,4.0,6.764569462,123.6669182,7.73,'11111222,11111222,11111222' 
TABS,ioos:station:TABS:X:1,2017-05-02T20:30:00Z,27.0660,-96.3383,4.0,6.694871171,125.9459131,8.24,'11111222,11111222,11111222' 
TABS,ioos:station:TABS:X:1,2017-05-02T21:00:00Z,27.0660,-96.3383,4.0,7.089146634,123.9594013,8.61,'11111222,11111222,11111222' 
TABS,ioos:station:TABS:X:1,2017-05-02T21:30:00Z,27.0660,-96.3383,4.0,7.175047038,123.6904097,8.29,'11111222,11111222,11111222' 
TABS,ioos:station:TABS:X:1,2017-05-02T22:00:00Z,27.0660,-96.3383,4.0,7.416643446,125.3404452,9.0,'11111222,11111222,11111222' 
TABS,ioos:station:TABS:X:1,2017-05-02T22:30:00Z,27.0660,-96.3383,4.0,7.276956782,127.7993546,8.48,'11111222,11111222,11111222' 
TABS,ioos:station:TABS:X:1,2017-05-02T23:00:00Z,27.0660,-96.3383,4.0,7.941718958,134.1330391,8.86,'11111222,11111222,11111222' 
TABS,ioos:station:TABS:X:1,2017-05-02T23:30:00Z,27.0660,-96.3383,4.0,8.310385069,136.2191881,9.72,'11111222,11111222,11111222' 
TABS,ioos:station:TABS:X:1,2017-05-03T00:00:00Z,27.0660,-96.3383,4.0,8.394932996,136.1103704,9.64,'11111222,11111222,11111222' 
TABS,ioos:station:TABS:X:1,2017-05-03T00:30:00Z,27.0660,-96.3383,4.0,7.272152364,136.6718932,8.77,'11111222,11111222,11111222' 
TABS,ioos:station:TABS:X:1,2017-05-03T01:00:00Z,27.0660,-96.3383,4.0,7.506030909,136.7817926,9.0,'11111222,11111222,11111222' 
TABS,ioos:station:TABS:X:1,2017-05-03T01:30:00Z,27.0660,-96.3383,4.0,7.788741875,145.5145,9.28,'11111222,11111222,11111222' 
TABS,ioos:station:TABS:X:1,2017-05-03T02:00:00Z,27.0660,-96.3383,4.0,6.834917703,148.217046,8.05,'11111222,11111222,11111222' 
TABS,ioos:station:TABS:X:1,2017-05-03T02:30:00Z,27.0660,-96.3383,4.0,6.934233916,141.6760038,7.81,'11111222,11111222,11111222' 
TABS,ioos:station:TABS:X:1,2017-05-03T03:00:00Z,27.0660,-96.3383,4.0,6.915670611,141.8709927,8.26,'11111222,11111222,11111222' 
TABS,ioos:station:TABS:X:1,2017-05-03T03:30:00Z,27.0660,-96.3383,4.0,6.786825473,146.0526623,7.71,'11111222,11111222,11111222' 
TABS,ioos:station:TABS:X:1,2017-05-03T04:00:00Z,27.0660,-96.3383,4.0,9.22978873,155.0733803,10.3,'11111222,11111222,11111222' 
TABS,ioos:station:TABS:X:1,2017-05-03T04:30:00Z,27.0660,-96.3383,4.0,8.28118349,155.9113283,9.65,'11111222,11111222,11111222' 
TABS,ioos:station:TABS:X:1,2017-05-03T05:00:00Z,27.0660,-96.3383,4.0,7.70559537,153.7344995,8.71,'11111222,11111222,11111222' 
TABS,ioos:station:TABS:X:1,2017-05-03T05:30:00Z,27.0660,-96.3383,4.0,7.714953013,152.7709538,8.59,'11111222,11111222,11111222' 
TABS,ioos:station:TABS:X:1,2017-05-03T06:00:00Z,27.0660,-96.3383,4.0,7.451509914,162.586596,8.38,'11111222,11111222,11111222' 
TABS,ioos:station:TABS:X:1,2017-05-03T06:30:00Z,27.0660,-96.3383,4.0,7.869618796,163.6148171,9.3,'11111222,11111222,11111222' 
TABS,ioos:station:TABS:X:1,2017-05-03T07:00:00Z,27.0660,-96.3383,4.0,7.769021817,166.6794874,8.87,'11111222,11111222,11111222' 
TABS,ioos:station:TABS:X:1,2017-05-03T07:30:00Z,27.0660,-96.3383,4.0,7.609533494,168.2473057,8.57,'11111222,11111222,11111222' 
TABS,ioos:station:TABS:X:1,2017-05-03T08:00:00Z,27.0660,-96.3383,4.0,7.574919141,166.6427829,8.73,'11111222,11111222,11111222' 
TABS,ioos:station:TABS:X:1,2017-05-03T08:30:00Z,27.0660,-96.3383,4.0,6.858928488,165.8221792,8.1,'11111222,11111222,11111222' 
TABS,ioos:station:TABS:X:1,2017-05-03T09:00:00Z,27.0660,-96.3383,4.0,6.914918655,170.0066536,8.12,'11111222,11111222,11111222' 
TABS,ioos:station:TABS:X:1,2017-05-03T09:30:00Z,27.0660,-96.3383,4.0,7.228844998,168.7524809,8.19,'11111222,11111222,11111222' 
TABS,ioos:station:TABS:X:1,2017-05-03T10:00:00Z,27.0660,-96.3383,4.0,6.29622903,166.030212,7.29,'11111222,11111222,11111222' 
TABS,ioos:station:TABS:X:1,2017-05-03T10:30:00Z,27.0660,-96.3383,4.0,7.290219475,167.9658622,9.35,'11111222,11111222,11111222' 
TABS,ioos:station:TABS:X:1,2017-05-03T11:00:00Z,27.0660,-96.3383,4.0,6.582172894,174.332938,7.95,'11111222,11111222,11111222' 
TABS,ioos:station:TABS:X:1,2017-05-03T11:30:00Z,27.0660,-96.3383,4.0,7.100739398,174.6669928,8.33,'11111222,11111222,11111222' 
TABS,ioos:station:TABS:X:1,2017-05-03T12:00:00Z,27.0660,-96.3383,4.0,8.349065816,166.8461698,9.64,'11111222,11111222,11111222' 
TABS,ioos:station:TABS:X:1,2017-05-03T12:30:00Z,27.0660,-96.3383,4.0,6.229815407,153.8053963,8.23,'11111222,11111222,11111222' 
TABS,ioos:station:TABS:X:1,2017-05-03T13:00:00Z,27.0660,-96.3383,4.0,7.952515325,154.3696569,10.89,'11111222,11111222,11111222' 
TABS,ioos:station:TABS:X:1,2017-05-03T13:30:00Z,27.0660,-96.3383,4.0,8.249181778,168.0364595,9.77,'11111222,11111222,11111222' 
TABS,ioos:station:TABS:X:1,2017-05-03T14:00:00Z,27.0660,-96.3383,4.0,10.02941673,168.8471556,11.59,'11111222,11111222,11111222' 
TABS,ioos:station:TABS:X:1,2017-05-03T14:30:00Z,27.0660,-96.3383,4.0,9.431887404,169.3693851,11.22,'11111222,11111222,11111222' 
TABS,ioos:station:TABS:X:1,2017-05-03T15:00:00Z,27.0660,-96.3383,4.0,9.36338614,172.822082,10.78,'11111222,11111222,11111222' 
TABS,ioos:station:TABS:X:1,2017-05-03T15:30:00Z,27.0660,-96.3383,4.0,9.47103479,180.8471805,11.29,'11111222,11111222,11111222' 
TABS,ioos:station:TABS:X:1,2017-05-03T16:00:00Z,27.0660,-96.3383,4.0,9.883688583,181.5655925,11.57,'11111222,11111222,11111222' 
TABS,ioos:station:TABS:X:1,2017-05-03T16:30:00Z,27.0660,-96.3383,4.0,8.100024691,179.85874,9.51,'11111222,11111222,11111222' 
TABS,ioos:station:TABS:X:1,2017-05-03T17:00:00Z,27.0660,-96.3383,4.0,7.422432216,181.4670291,8.34,'11111222,11111222,11111222' 
TABS,ioos:station:TABS:X:1,2017-05-03T17:30:00Z,27.0660,-96.3383,4.0,6.851685924,183.3470213,8.03,'11111222,11111222,11111222' 
TABS,ioos:station:TABS:X:1,2017-05-03T18:00:00Z,27.0660,-96.3383,4.0,7.164426006,188.2660116,8.47,'11111222,11111222,11111222' 
TABS,ioos:station:TABS:X:1,2017-05-03T18:30:00Z,27.0660,-96.3383,4.0,7.014905559,189.4356553,8.54,'11111222,11111222,11111222' 
TABS,ioos:station:TABS:X:1,2017-05-03T19:00:00Z,27.0660,-96.3383,4.0,7.510239677,179.5424654,8.44,'11111222,11111222,11111222' 
TABS,ioos:station:TABS:X:1,2017-05-03T19:30:00Z,27.0660,-96.3383,4.0,6.282579088,181.6419928,7.22,'11111222,11111222,11111222' 
TABS,ioos:station:TABS:X:1,2017-05-03T20:00:00Z,27.0660,-96.3383,4.0,5.794902933,187.1374738,6.91,'11111222,11111222,11111222' 
TABS,ioos:station:TABS:X:1,2017-05-03T20:30:00Z,27.0660,-96.3383,4.0,5.917541719,190.4176148,6.76,'11111222,11111222,11111222' 
TABS,ioos:station:TABS:X:1,2017-05-03T21:00:00Z,27.0660,-96.3383,4.0,5.623735413,187.1504839,6.66,'11111222,11111222,11111222' 
TABS,ioos:station:TABS:X:1,2017-05-03T21:30:00Z,27.0660,-96.3383,4.0,5.370037244,180.2136011,6.06,'11111222,11111222,11111222' 
TABS,ioos:station:TABS:X:1,2017-05-03T22:00:00Z,27.0660,-96.3383,4.0,4.684805225,173.0117371,5.56,'11111222,11111222,11111222' 
TABS,ioos:station:TABS:X:1,2017-05-03T22:30:00Z,27.0660,-96.3383,4.0,4.065033825,160.0051087,4.62,'11111222,11111222,11111222' 
TABS,ioos:station:TABS:X:1,2017-05-03T23:00:00Z,27.0660,-96.3383,4.0,5.618051264,159.1458012,6.71,'11111222,11111222,11111222' 
TABS,ioos:station:TABS:X:1,2017-05-03T23:30:00Z,27.0660,-96.3383,4.0,5.033378587,163.257393,5.88,'11111222,11111222,11111222' 
TABS,ioos:station:TABS:X:1,2017-05-04T00:00:00Z,27.0660,-96.3383,4.0,4.330103925,150.5344071,5.06,'11111222,11111222,11111222' 
TABS,ioos:station:TABS:X:1,2017-05-04T00:30:00Z,27.0660,-96.3383,4.0,5.346297784,157.8008337,5.99,'11111222,11111222,11111222' 
TABS,ioos:station:TABS:X:1,2017-05-04T01:00:00Z,27.0660,-96.3383,4.0,4.513025593,154.400468,5.24,'11111222,11111222,11111222' 
TABS,ioos:station:TABS:X:1,2017-05-04T01:30:00Z,27.0660,-96.3383,4.0,4.395463571,155.8260136,4.94,'11111222,11111222,11111222' 
TABS,ioos:station:TABS:X:1,2017-05-04T02:00:00Z,27.0660,-96.3383,4.0,4.939605247,163.6565292,5.56,'11111222,11111222,11111222' 
TABS,ioos:station:TABS:X:1,2017-05-04T02:30:00Z,27.0660,-96.3383,4.0,5.097891721,167.6542899,5.71,'11111222,11111222,11111222' 
TABS,ioos:station:TABS:X:1,2017-05-04T03:00:00Z,27.0660,-96.3383,4.0,5.377080993,172.4126262,6.33,'11111222,11111222,11111222' 
TABS,ioos:station:TABS:X:1,2017-05-04T03:30:00Z,27.0660,-96.3383,4.0,4.294286902,175.3252213,5.06,'11111222,11111222,11111222' 
TABS,ioos:station:TABS:X:1,2017-05-04T04:00:00Z,27.0660,-96.3383,4.0,3.843331888,182.3861489,4.39,'11111222,11111222,11111222' 
TABS,ioos:station:TABS:X:1,2017-05-04T04:30:00Z,27.0660,-96.3383,4.0,3.640123624,180.4724166,4.15,'11111222,11111222,11111222' 
TABS,ioos:station:TABS:X:1,2017-05-04T05:00:00Z,27.0660,-96.3383,4.0,3.221443776,195.1149015,3.89,'11111222,11111222,11111222' 
TABS,ioos:station:TABS:X:1,2017-05-04T05:30:00Z,27.0660,-96.3383,4.0,2.737608445,200.7521731,3.27,'11111222,11111222,11111222' 
TABS,ioos:station:TABS:X:1,2017-05-04T06:00:00Z,27.0660,-96.3383,4.0,11.3006637,15.86854043,15.73,'11111222,11111222,11111222' 
TABS,ioos:station:TABS:X:1,2017-05-04T06:30:00Z,27.0660,-96.3383,4.0,10.63858073,7.398673288,13.86,'11111222,11111222,11111222' 
TABS,ioos:station:TABS:X:1,2017-05-04T07:00:00Z,27.0660,-96.3383,4.0,10.3862409,34.88326492,13.84,'11111222,11111222,11111222' 
TABS,ioos:station:TABS:X:1,2017-05-04T07:30:00Z,27.0660,-96.3383,4.0,7.050177303,36.46325569,9.95,'11111222,11111222,11111222' 
TABS,ioos:station:TABS:X:1,2017-05-04T08:00:00Z,27.0660,-96.3383,4.0,9.794386147,26.04154524,13.39,'11111222,11111222,11111222' 
TABS,ioos:station:TABS:X:1,2017-05-04T08:30:00Z,27.0660,-96.3383,4.0,9.180005447,359.937376,11.56,'11111222,11144222,11111222' 
TABS,ioos:station:TABS:X:1,2017-05-04T09:00:00Z,27.0660,-96.3383,4.0,9.610541088,2.683558425,12.44,'11111222,11111222,11111222' 
TABS,ioos:station:TABS:X:1,2017-05-04T09:30:00Z,27.0660,-96.3383,4.0,10.19049067,0.562044756,14.55,'11111222,11111222,11111222' 
TABS,ioos:station:TABS:X:1,2017-05-04T10:00:00Z,27.0660,-96.3383,4.0,10.34683526,356.7308888,13.58,'11111222,11111222,11111222' 
TABS,ioos:station:TABS:X:1,2017-05-04T10:30:00Z,27.0660,-96.3383,4.0,9.757971101,5.055991059,14.58,'11111222,11111222,11111222' 
TABS,ioos:station:TABS:X:1,2017-05-04T11:00:00Z,27.0660,-96.3383,4.0,9.54253635,14.93890714,12.44,'11111222,11111222,11111222' 
TABS,ioos:station:TABS:X:1,2017-05-04T11:30:00Z,27.0660,-96.3383,4.0,9.727260663,7.680047166,14.1,'11111222,11111222,11111222' 
TABS,ioos:station:TABS:X:1,2017-05-04T12:00:00Z,27.0660,-96.3383,4.0,9.163798339,14.79423604,11.94,'11111222,11111222,11111222' 
TABS,ioos:station:TABS:X:1,2017-05-04T12:30:00Z,27.0660,-96.3383,4.0,8.773078137,22.58945921,11.83,'11111222,11111222,11111222' 
TABS,ioos:station:TABS:X:1,2017-05-04T13:00:00Z,27.0660,-96.3383,4.0,8.892969133,21.92078798,11.53,'11111222,11111222,11111222' 
TABS,ioos:station:TABS:X:1,2017-05-04T13:30:00Z,27.0660,-96.3383,4.0,9.117554497,16.7652046,12.65,'11111222,11111222,11111222' 
TABS,ioos:station:TABS:X:1,2017-05-04T14:00:00Z,27.0660,-96.3383,4.0,9.26984358,32.93548063,12.7,'11111222,11111222,11111222' 
TABS,ioos:station:TABS:X:1,2017-05-04T14:30:00Z,27.0660,-96.3383,4.0,8.989243572,26.9923501,12.55,'11111222,11111222,11111222' 
TABS,ioos:station:TABS:X:1,2017-05-04T15:00:00Z,27.0660,-96.3383,4.0,9.636098796,12.70914796,13.39,'11111222,11111222,11111222' 
TABS,ioos:station:TABS:X:1,2017-05-04T15:30:00Z,27.0660,-96.3383,4.0,8.960563598,11.19683495,12.1,'11111222,11111222,11111222' 
TABS,ioos:station:TABS:X:1,2017-05-04T16:00:00Z,27.0660,-96.3383,4.0,8.494668916,9.828013872,11.21,'11111222,11111222,11111222' 
TABS,ioos:station:TABS:X:1,2017-05-04T16:30:00Z,27.0660,-96.3383,4.0,8.705521237,2.04049515,11.17,'11111222,11111222,11111222' 
TABS,ioos:station:TABS:X:1,2017-05-04T17:00:00Z,27.0660,-96.3383,4.0,9.206590031,347.2617561,12.28,'11111222,11111222,11111222' 
TABS,ioos:station:TABS:X:1,2017-05-04T17:30:00Z,27.0660,-96.3383,4.0,9.602525709,346.5713907,12.71,'11111222,11111222,11111222' 
TABS,ioos:station:TABS:X:1,2017-05-04T18:00:00Z,27.0660,-96.3383,4.0,9.108748542,336.9251445,11.74,'11111222,11111222,11111222' 
TABS,ioos:station:TABS:X:1,2017-05-04T18:30:00Z,27.0660,-96.3383,4.0,10.29300734,323.9315749,14.15,'11111222,11111222,11111222' 
TABS,ioos:station:TABS:X:1,2017-05-04T19:00:00Z,27.0660,-96.3383,4.0,10.40742523,321.2798872,13.63,'11111222,11111222,11111222' 
TABS,ioos:station:TABS:X:1,2017-05-04T19:30:00Z,27.0660,-96.3383,4.0,10.31187665,326.3098008,13.72,'11111222,11111222,11111222' 
TABS,ioos:station:TABS:X:1,2017-05-04T20:00:00Z,27.0660,-96.3383,4.0,9.130049288,332.1156337,11.37,'11111222,11111222,11111222' 
TABS,ioos:station:TABS:X:1,2017-05-04T20:30:00Z,27.0660,-96.3383,4.0,8.653906632,330.2057054,10.89,'11111222,11111222,11111222' 